Other Public Products
Issued by NWS Grand Forks, ND

Home | Current Version | Previous Version | Graphics & Text | Print | Product List | Glossary On
Versions: 1 2 3 4 5 6 7 8 9 10 11 12 13 14 15 16 17 18 19 20 21 22 23 24 25 26 27 28 29 30 31 32 33 34 35 36 37 38 39 40 41 42 43 44 45 46 47 48 49 50
000
FPUS83 KFGF 210631
OPUFGF
PRAIRIE TO PINES WEATHER ROUNDUP
NATIONAL WEATHER SERVICE EASTERN NORTH DAKOTA/GRAND FORKS ND
100 AM CDT SUN SEP 21 2014

 **SATELLITE DATA USED TO AUGMENT SKY COVER AT AUTOMATED STATIONS**
 *****  WEATHER ACROSS EASTERN NORTH DAKOTA  *****

CITY           SKY/WX    TMP DP  RH WIND       PRES   REMARKS
GRAND FORKS    CLOUDY    54  50  86 NW7       29.98R
6HR MIN TEMP:  52; 6HR MAX TEMP:  61; 6HR PCP: TRACE;

GRAND FORKS AF CLOUDY    53  51  94 N8        30.00R
GRAND CITY NWS   N/A     52 N/A N/A NW3         N/A
BUXTON           N/A     54  52  93 NW8         N/A
DEVILS LAKE    PTCLDY    54  45  71 W9        30.04R
6HR MIN TEMP:  55; 6HR MAX TEMP:  66;

FARGO          CLOUDY    55  49  80 NW10      29.99R
6HR MIN TEMP:  53; 6HR MAX TEMP:  65; 6HR PCP: TRACE;

WAHPETON ARPT  CLOUDY    54  46  76 NW9       30.00R
$$

 *****  WEATHER ACROSS CENTRAL AND WESTERN NORTH DAKOTA  *****

CITY           SKY/WX    TMP DP  RH WIND       PRES   REMARKS
JAMESTOWN      MOCLDY    56  46  69 NW12      30.06R
6HR MIN TEMP:  56; 6HR MAX TEMP:  65;

BISMARCK       CLEAR     55  41  59 NW9       30.15R
6HR MIN TEMP:  55; 6HR MAX TEMP:  69;

MINOT          CLEAR     54  40  59 W14       30.12R
6HR MIN TEMP:  54; 6HR MAX TEMP:  67;

MINOT AFB      CLEAR     51  44  77 NW10      30.12R
6HR MIN TEMP:  50; 6HR MAX TEMP:  66;

GARRISON         N/A     51  41  68 NW10      30.14R
6HR MIN TEMP:  51; 6HR MAX TEMP:  67;

WILLISTON      CLEAR     52  37  56 W10       30.20R
6HR MIN TEMP:  51; 6HR MAX TEMP:  69;

DICKINSON      CLEAR     47  35  63 W6        30.21R
6HR MIN TEMP:  44; 6HR MAX TEMP:  67;

HETTINGER      CLEAR     41  34  76 W8        30.24R
6HR MIN TEMP:  41; 6HR MAX TEMP:  68;

$$

 *****  OTHER OBSERVATIONS NORTHEAST NORTH DAKOTA  *****

CITY           SKY/WX    TMP DP  RH WIND       PRES   REMARKS
WALHALLA         N/A     55  55 100 NW12      30.01R
LANGDON        FAIR      48  45  87 NW9       30.03R
CAVALIER       FAIR      54  50  87 NW10      30.00R
GRAFTON        FAIR      52  50  93 NW8       30.00R
CANDO          FAIR      48  46  93 NW8       30.07R
FORT TOTTEN      N/A     56  47  73 NW6       29.95
ROLLA          CLOUDY    54  46  76 NW9       30.08R
RUGBY          FAIR      50  46  87 NW8       30.09R
 ***** THE ABOVE OBSERVATIONS ARE NON NWS ARE NOT QUALITY
        CONTROLLED AND MAY MIS-REPORT RAIN FOR SNOW...
$$

 *****  OTHER OBSERVATIONS SOUTHEAST NORTH DAKOTA *****

CITY           SKY/WX    TMP DP  RH WIND       PRES   REMARKS
COOPERSTOWN    NOT AVBL
VALLEY CITY    FAIR      54  48  82 NW8       30.04R
OAKES            N/A     54  46  76 NW10      30.06R
GWINNER        MOCLDY    57  45  62 NW13      30.05R
SHEYENNE NWR     N/A     54  46  75 NW5       29.95S
BUFFALO          N/A     51  47  87 NW6         N/A
WYNDMERE         N/A     52  46  82 NW3         N/A
 ***** THE ABOVE OBSERVATIONS ARE NON NWS ARE NOT QUALITY
       CONTROLLED AND MAY MIS-REPORT RAIN FOR SNOW...
$$

  *****  WEATHER ACROSS NORTHERN MINNESOTA  *****

CITY           SKY/WX    TMP DP  RH WIND       PRES   REMARKS
FLAG ISLAND    CLOUDY    52  48  87 W8        29.92R
WARROAD        DRIZZLE   50  46  87 W3        29.95R
ROSEAU         LGT RAIN  52  46  82 W3        29.95R
HALLOCK        CLEAR     52  48  87 NW6       29.99R
THF RVR FALLS  CLOUDY    52  50  93 NW8       29.98R
6HR MIN TEMP:  52; 6HR MAX TEMP:  57;

HALSTAD          N/A     51  48  90 N7          N/A
FOSSTON        CLOUDY    48  48 100 NW7       29.97S
BAUDETTE       LGT RAIN  50  47  89 NW7       29.92R
6HR MIN TEMP:  50; 6HR MAX TEMP:  53; 6HR PCP:  0.22;

WASKISH        DRIZZLE   50  48  93 NW3       29.93R
CROOKSTON      MOCLDY    52  52 100 NW7       29.99R
$$
  *****  WEATHER ACROSS CENTRAL AND WEST MINNESOTA  *****

CITY           SKY/WX    TMP DP  RH WIND       PRES   REMARKS
BEMIDJI        CLOUDY    48  47  95 NW9       29.94R
PARK RAPIDS    MOCLDY    50  48  93 NW6       29.94R
6HR MIN TEMP:  50; 6HR MAX TEMP:  57; 6HR PCP:  0.01;

WADENA         CLEAR     50  48  93 NW7       29.94R
DETROIT LAKES  CLEAR     50  50 100 NW13      29.97R
MOORHEAD       MOCLDY    55  54  94 NW10G16   30.00R
FERGUS FALLS   CLEAR     48  46  93 NW9       30.00R
ELBOW LAKE     MOCLDY    51  49  93 NW8       29.98R
6HR MIN TEMP:  51; 6HR MAX TEMP:  61;

MORRIS MN      CLEAR     52  48  87 NW9       29.97R
STAPLES        CLEAR     48  45  87 NW9       29.93R
WHEATON        CLEAR     52  46  82 NW9       30.02R
$$
  *****  WEATHER ELSEWHERE ACROSS MINNESOTA  *****

CITY           SKY/WX    TMP DP  RH WIND       PRES   REMARKS
DULUTH         LGT RAIN  53  50  89 NW12      29.76R
6HR MIN TEMP:  53; 6HR MAX TEMP:  56; 6HR PCP:  0.56;

INTRNTL FALLS  LGT RAIN  50  48  93 NW9       29.89R
6HR MIN TEMP:  50; 6HR MAX TEMP:  56; 6HR PCP:  0.23;

ELY            CLOUDY    52  50  93 N5        29.80R
CLOQUET        LGT RAIN  52  48  87 NW14G22   29.79R
BRAINERD       MOCLDY    51  47  86 NW16      29.90R
6HR MIN TEMP:  50; 6HR MAX TEMP:  57;

HIBBING        LGT RAIN  52  49  89 N12G23    29.83R
6HR MIN TEMP:  52; 6HR MAX TEMP:  55; 6HR PCP:  0.56;

ALEXANDRIA     CLEAR     53  49  86 W12       29.95R
6HR MIN TEMP:  53; 6HR MAX TEMP:  60; 6HR PCP:  0.09;

SAINT CLOUD    CLEAR     56  49  77 NW9       29.88R
6HR MIN TEMP:  56; 6HR MAX TEMP:  63;

MINNEAPOLIS    PTCLDY    57  50  77 W12       29.85S
6HR MIN TEMP:  57; 6HR MAX TEMP:  60;

$$

  *****  WEATHER ACROSS SOUTH DAKOTA  *****

CITY           SKY/WX    TMP DP  RH WIND       PRES   REMARKS
SIOUX FALLS    CLEAR     56  46  69 W8        30.05R
6HR MIN TEMP:  56; 6HR MAX TEMP:  73;

BROOKINGS      NOT AVBL
WATERTOWN      CLEAR     57  43  59 NW14      30.03R
6HR MIN TEMP:  57; 6HR MAX TEMP:  63;

HURON          CLEAR     53  40  61 NW12      30.08R
6HR MIN TEMP:  52; 6HR MAX TEMP:  71;

SISSETON         N/A     59  45  59 N14       29.99R
ABERDEEN       CLEAR     57  41  55 NW14      30.08R
6HR MIN TEMP:  57; 6HR MAX TEMP:  67;

MITCHELL       CLEAR     56  43  61 NW10      30.10R
PIERRE         CLEAR     51  43  74 NW8       30.15R
6HR MIN TEMP:  50; 6HR MAX TEMP:  74;

MOBRIDGE       CLEAR     50  42  74 N8        30.13R
RAPID CITY     CLEAR     55  37  50 N10       30.28R
6HR MIN TEMP:  51; 6HR MAX TEMP:  72;

$$

  *****  SOME WEATHER IN NEARBY STATES *****

CITY           SKY/WX    TMP DP  RH WIND       PRES   REMARKS
GLASGOW MT     CLEAR     52  36  54 NW5       30.25R
6HR MIN TEMP:  50; 6HR MAX TEMP:  71;

GREAT FALLS MT CLEAR     54  42  64 E9        30.26S
6HR MIN TEMP:  53; 6HR MAX TEMP:  71;

CHEYENNE WY    MOCLDY    57  38  48 NE5       30.38S
6HR MIN TEMP:  57; 6HR MAX TEMP:  73;

SCOTTSBLUFF NE MOCLDY    55  42  61 CALM      30.31S
6HR MIN TEMP:  54; 6HR MAX TEMP:  79;

OMAHA NE       CLEAR     62  54  74 N6        30.07R
6HR MIN TEMP:  62; 6HR MAX TEMP:  80;

DES MOINES IA  CLEAR     62  51  67 N6        30.00S
6HR MIN TEMP:  62; 6HR MAX TEMP:  78;

DAVENPORT IA   PTCLDY    63  55  75 NW16G26   29.88R
6HR MIN TEMP:  63; 6HR MAX TEMP:  72;

CHICAGO IL     LGT RAIN  66  63  90 W14       29.71F
6HR MIN TEMP:  66; 6HR MAX TEMP:  73; 6HR PCP:  0.04;

EAU CLAIRE WI  MOCLDY    56  49  77 W10       29.75F
6HR MIN TEMP:  55; 6HR MAX TEMP:  68; 6HR PCP:  0.17;

LA CROSSE WI   CLEAR     59  51  75 W10       29.80F
6HR MIN TEMP:  59; 6HR MAX TEMP:  71; 6HR PCP:  0.08;

$$

  *****  SOME NATIONAL WEATHER *****

CITY           SKY/WX    TMP DP  RH WIND       PRES   REMARKS


USA.gov is the U.S. government's official web portal to all federal, state and local government web resources and services.